Weather History for Fort Lauderdale, FL

Change the Weather History Date:

Monday, December 31, 2012

  Actual Average Record
Temperature  
Mean Temperature 70 °F -  
Max Temperature 75 °F 78 °F 84 °F (1952)
Min Temperature 66 °F 62 °F 37 °F (1956)
Cooling Degree Days 6    
Growing Degree Days 20 (Base 50)    
Moisture  
Dew Point 55 °F    
Average Humidity 57    
Maximum Humidity 63    
Minimum Humidity 48    
Precipitation  
Precipitation 0.00 in - - ()
Sea Level Pressure  
Sea Level Pressure 30.25 in    
Wind  
Wind Speed 14 mph (East)    
Max Wind Speed 18 mph    
Max Gust Speed 23 mph    
Visibility 10 miles    
Events      
Averages and records for this station are not official NWS values.
T = Trace of Precipitation, MM = Missing Value Source: NWS Daily Summary

Daily Weather History Graph

Daily Weather History Graph

Search for Another Location

Airport:

Trip Planner

Search our weather history database for the weather conditions in past years. The results will help you decide how hot, cold, wet, or windy it might be!

Date:

Astronomy

Dec. 31, 2012 Rise Set
Actual Time 7:08 AM EST 5:39 PM EST
Civil Twilight 6:42 AM EST 6:05 PM EST
Nautical Twilight 6:14 AM EST 6:33 PM EST
Astronomical Twilight 5:45 AM EST 7:02 PM EST
Moon 8:48 PM EST (12/31) 9:07 AM EST (12/31)
Length of Visible Light 11h 22m
Length of Day
10h 31m
Waning Gibbous, 90% of the Moon is Illuminated
Dec 31
Waning Gibbous
Jan 4
Last Quarter
Jan 11
New
Jan 18
First Quarter
Jan 26
Full

Hourly Weather History & Observations

Time (EST) Temp. Dew Point Humidity Pressure Visibility Wind Dir Wind Speed Gust Speed Precip Events Conditions
12:53 AM 66.0 °F 52.0 °F 60% 30.27 in 10.0 mi ENE 15.0 mph 21.9 mph N/A   Scattered Clouds
1:53 AM 66.9 °F 52.0 °F 59% 30.27 in 10.0 mi East 13.8 mph - N/A   Scattered Clouds
2:53 AM 66.9 °F 53.1 °F 61% 30.27 in 10.0 mi East 12.7 mph 23.0 mph N/A   Mostly Cloudy
3:53 AM 66.9 °F 53.1 °F 61% 30.27 in 10.0 mi ENE 12.7 mph - N/A   Mostly Cloudy
4:53 AM 68.0 °F 54.0 °F 61% 30.25 in 10.0 mi ENE 12.7 mph - N/A   Overcast
5:53 AM 68.0 °F 55.0 °F 63% 30.25 in 10.0 mi East 13.8 mph - N/A   Overcast
6:53 AM 68.0 °F 55.0 °F 63% 30.26 in 10.0 mi East 11.5 mph - N/A   Mostly Cloudy
7:53 AM 69.1 °F 54.0 °F 58% 30.27 in 10.0 mi East 15.0 mph - N/A   Scattered Clouds
8:53 AM 71.1 °F 55.0 °F 57% 30.30 in 10.0 mi East 17.3 mph - N/A   Scattered Clouds
9:53 AM 72.0 °F 55.0 °F 55% 30.31 in 10.0 mi East 18.4 mph - N/A   Scattered Clouds
10:53 AM 75.0 °F 55.9 °F 51% 30.31 in 10.0 mi East 18.4 mph 23.0 mph N/A   Scattered Clouds
11:53 AM 73.9 °F 55.9 °F 53% 30.30 in 10.0 mi East 17.3 mph - N/A   Scattered Clouds
12:53 PM 75.9 °F 55.0 °F 48% 30.27 in 10.0 mi East 17.3 mph 21.9 mph N/A   Scattered Clouds
1:53 PM 75.0 °F 55.9 °F 51% 30.25 in 10.0 mi East 16.1 mph - N/A   Mostly Cloudy
2:53 PM 73.9 °F 55.0 °F 52% 30.23 in 10.0 mi East 15.0 mph - N/A   Scattered Clouds
3:53 PM 75.0 °F 57.0 °F 53% 30.22 in 10.0 mi East 13.8 mph - N/A   Scattered Clouds
4:53 PM 73.0 °F 57.9 °F 59% 30.22 in 10.0 mi East 17.3 mph - N/A   Scattered Clouds
5:53 PM 72.0 °F 55.0 °F 55% 30.21 in 10.0 mi ESE 12.7 mph - N/A   Partly Cloudy
6:53 PM 72.0 °F 55.9 °F 57% 30.21 in 10.0 mi ESE 9.2 mph - N/A   Mostly Cloudy
7:53 PM 71.6 °F 57.2 °F 60% 30.20 in 10.0 mi ESE 11.5 mph - N/A   Mostly Cloudy
8:53 PM 72.0 °F 57.0 °F 59% 30.22 in 10.0 mi ESE 10.4 mph - N/A   Overcast
9:53 PM 71.6 °F 55.4 °F 57% 30.21 in 10.0 mi ESE 12.7 mph - N/A   Mostly Cloudy
10:53 PM 71.6 °F 57.2 °F 60% 30.21 in 10.0 mi SE 9.2 mph - N/A   Mostly Cloudy
11:53 PM 72.0 °F 57.0 °F 59% 30.21 in 10.0 mi ESE 10.4 mph - N/A   Mostly Cloudy